This is the latest recevied weather packets stored in our database for station/object YD2CLX-13. If no packets are shown the sender has not sent any weather packets the latest 10 day(s).
| Time | Temp. | Humidity | Pressure | Rain* | Wind** | Luminosity | Snow |
|---|---|---|---|---|---|---|---|
| 1777887360 | 10.56° C | 68% | 797.2 hPa | 0 mm | - | - | - |
| 1777886742 | 11.11° C | 68% | 797 hPa | 0 mm | - | - | - |
| 1777886127 | 11.11° C | 68% | 797 hPa | 0 mm | - | - | - |
| 1777885515 | 11.11° C | 68% | 797.3 hPa | 0 mm | - | - | - |
| 1777884896 | 11.11° C | 69% | 797.2 hPa | 0 mm | - | - | - |
| 1777884280 | 11.11° C | 68% | 797.1 hPa | 0 mm | - | - | - |
| 1777883048 | 11.11° C | 70% | 797 hPa | 0 mm | - | - | - |
| 1777882432 | 11.11° C | 69% | 796.7 hPa | 0 mm | - | - | - |
| 1777881816 | 11.11° C | 69% | 796.6 hPa | 0 mm | - | - | - |
| 1777881199 | 11.11° C | 70% | 796.7 hPa | 0 mm | - | - | - |
| 1777880584 | 11.11° C | 70% | 796.6 hPa | 0 mm | - | - | - |
| 1777879966 | 11.11° C | 70% | 796.5 hPa | 0 mm | - | - | - |
| 1777879351 | 11.67° C | 70% | 796.5 hPa | 0 mm | - | - | - |
| 1777878121 | 12.22° C | 69% | 796.8 hPa | 0 mm | - | - | - |
| 1777876901 | 12.22° C | 68% | 796.8 hPa | 0 mm | - | - | - |
| 1777876293 | 12.78° C | 68% | 797 hPa | 0 mm | - | - | - |
| 1777875684 | 12.78° C | 68% | 796.9 hPa | 0 mm | - | - | - |
| 1777875073 | 13.33° C | 68% | 797.1 hPa | 0 mm | - | - | - |
| 1777874464 | 13.89° C | 68% | 797.3 hPa | 0 mm | - | - | - |
| 1777873855 | 13.89° C | 68% | 797.2 hPa | 0 mm | - | - | - |
| 1777873247 | 13.89° C | 68% | 797.4 hPa | 0 mm | - | - | - |
| 1777872638 | 15° C | 68% | 797.5 hPa | 0 mm | - | - | - |
| 1777872029 | 15° C | 68% | 797.8 hPa | 0 mm | - | - | - |
| 1777871421 | 14.44° C | 69% | 797.8 hPa | 0 mm | - | - | - |
| 1777869594 | 14.44° C | 69% | 798.3 hPa | 0 mm | - | - | - |
* Rain latest hour (hover to see other rain measurements)
** Current wind speed in m/s (hover to see current wind gust speed)